K6OUA-11 Weather Reports


Display with metric or nautical units.
time (UTC)temp
F
wind
direction
speed
MPH
gust
MPH
rain 1hr
in
rain 24hr
in
rain mn
in
humidity
%
barometer
mb
20170227154200 48 135 1.0 2.0 0.00 0.00 0.00 85 1005.5
20170227153859 48 94 1.0 1.0 0.00 0.00 0.00 85 1005.5
20170227153557 48 135 0.0 2.0 0.00 0.00 0.00 84 1005.7
20170227153256 48 90 1.0 2.0 0.00 0.00 0.00 84 1005.6
20170227152957 48 112 0.0 2.0 0.00 0.00 0.00 85 1005.6
20170227152654 48 96 2.0 2.0 0.00 0.00 0.00 84 1005.7
20170227152353 48 135 0.0 2.0 0.00 0.00 0.00 85 1005.6
20170227151751 48 180 0.0 0.0 0.00 0.00 0.00 84 1005.7
20170227151149 48 180 0.0 1.0 0.00 0.00 0.00 85 1005.7
20170227150847 48 90 0.0 1.0 0.00 0.00 0.00 84 1005.6
20170227150547 48 90 0.0 1.0 0.00 0.00 0.00 84 1005.5
20170227145944 48 45 1.0 2.0 0.00 0.00 0.00 84 1005.5
20170227145643 48 45 1.0 2.0 0.00 0.00 0.00 84 1005.4
20170227145342 48 36 1.0 3.0 0.00 0.00 0.00 84 1005.3
20170227145041 47 56 1.0 3.0 0.00 0.00 0.00 84 1005.3
20170227144740 47 47 1.0 4.0 0.00 0.00 0.00 85 1005.3
20170227144439 47 49 4.0 4.0 0.00 0.00 0.00 85 1005.3
20170227144138 47 85 2.0 3.0 0.00 0.00 0.00 85 1005.1
20170227143837 47 76 3.0 5.0 0.00 0.00 0.00 85 1005.2
20170227143538 47 74 4.0 4.0 0.00 0.00 0.00 85 1005.0
20170227143240 47 49 3.0 3.0 0.00 0.00 0.00 85 1005.2
20170227142934 47 72 3.0 4.0 0.00 0.00 0.00 85 1005.2
20170227142634 47 96 2.0 5.0 0.00 0.00 0.00 85 1005.0
20170227142331 47 92 2.0 5.0 0.00 0.00 0.00 86 1005.2
20170227142030 47 81 4.0 4.0 0.00 0.00 0.00 86 1005.3
20170227141729 47 85 4.0 4.0 0.00 0.00 0.00 86 1005.2
20170227141428 47 81 1.0 4.0 0.00 0.00 0.00 86 1005.3
20170227141127 47 90 1.0 4.0 0.00 0.00 0.00 86 1005.4
20170227140826 47 87 3.0 4.0 0.00 0.00 0.00 86 1005.3
20170227140524 47 87 2.0 3.0 0.00 0.00 0.00 86 1005.3
20170227140223 47 63 2.0 4.0 0.00 0.00 0.00 86 1005.3
20170227135924 47 65 3.0 4.0 0.00 0.00 0.00 86 1005.5
20170227135621 47 112 2.0 4.0 0.00 0.00 0.00 86 1005.4
20170227135320 47 87 1.0 4.0 0.00 0.00 0.00 86 1005.5
20170227134718 47 63 3.0 3.0 0.00 0.00 0.00 86 1005.4
20170227134417 47 65 2.0 3.0 0.00 0.00 0.00 86 1005.5
20170227134117 47 54 2.0 5.0 0.00 0.00 0.00 86 1005.4
20170227133814 47 74 4.0 4.0 0.00 0.00 0.00 86 1005.5
20170227133513 47 85 2.0 4.0 0.00 0.00 0.00 86 1005.6
20170227133212 47 69 3.0 4.0 0.00 0.00 0.00 86 1005.7
20170227132912 47 74 2.0 4.0 0.00 0.00 0.00 85 1005.7
20170227132309 47 49 3.0 4.0 0.00 0.00 0.00 86 1005.9
20170227132009 47 6 1.0 2.0 0.00 0.00 0.00 86 1005.9
20170227131707 47 31 1.0 3.0 0.00 0.00 0.00 86 1005.9
20170227131406 47 42 1.0 3.0 0.00 0.00 0.00 86 1005.9
20170227131104 47 49 2.0 3.0 0.00 0.00 0.00 86 1006.0
20170227130803 47 47 2.0 3.0 0.00 0.00 0.00 86 1006.0
20170227130502 47 27 1.0 2.0 0.00 0.00 0.00 86 1006.1
20170227130201 47 47 2.0 4.0 0.00 0.00 0.00 86 1005.9
20170227125900 47 58 3.0 4.0 0.00 0.00 0.00 86 1006.0
20170227125559 47 65 2.0 4.0 0.00 0.00 0.00 86 1005.9
20170227125258 47 132 1.0 4.0 0.00 0.00 0.00 86 1005.9
20170227124957 47 69 3.0 6.0 0.00 0.00 0.00 86 1005.8
20170227124355 47 76 3.0 5.0 0.00 0.00 0.00 86 1005.8
20170227124053 47 65 2.0 5.0 0.00 0.00 0.00 87 1006.0
20170227123752 47 49 4.0 5.0 0.00 0.00 0.00 87 1006.0
20170227123150 47 90 1.0 4.0 0.00 0.00 0.00 87 1006.1
20170227122850 47 81 3.0 4.0 0.00 0.00 0.00 87 1006.0
20170227122548 47 92 2.0 5.0 0.00 0.00 0.00 87 1006.0
20170227122247 47 90 3.0 6.0 0.00 0.00 0.00 87 1006.0
20170227121947 47 40 6.0 6.0 0.00 0.00 0.00 87 1006.0
20170227121645 47 81 3.0 3.0 0.00 0.00 0.00 87 1006.1
20170227121343 47 54 3.0 3.0 0.00 0.00 0.00 87 1006.1
20170227121044 47 92 2.0 3.0 0.00 0.00 0.00 87 1006.1
20170227120440 47 45 3.0 3.0 0.00 0.00 0.00 88 1006.1
20170227120139 47 74 2.0 4.0 0.00 0.00 0.00 88 1006.0
20170227115839 47 47 3.0 4.0 0.00 0.00 0.00 88 1006.1
20170227115538 47 72 2.0 4.0 0.00 0.00 0.00 88 1006.0
20170227115236 47 90 2.0 4.0 0.00 0.00 0.00 88 1005.9
20170227114936 47 51 3.0 5.0 0.00 0.00 0.00 88 1006.0
20170227114633 47 47 3.0 5.0 0.00 0.00 0.00 88 1006.1
20170227114333 47 69 2.0 3.0 0.00 0.00 0.00 88 1006.1
20170227114031 47 103 2.0 3.0 0.00 0.00 0.00 88 1006.1
20170227113730 47 54 2.0 3.0 0.00 0.00 0.00 88 1006.1
20170227113429 47 45 1.0 4.0 0.00 0.00 0.00 88 1006.1
20170227113128 47 45 2.0 3.0 0.00 0.00 0.00 88 1006.2
20170227112827 47 51 2.0 3.0 0.00 0.00 0.00 88 1006.2
20170227112526 47 92 1.0 3.0 0.00 0.00 0.00 88 1006.2
20170227112225 47 90 2.0 3.0 0.00 0.00 0.00 89 1006.2
20170227111923 47 85 2.0 3.0 0.00 0.00 0.00 89 1006.2
20170227111622 47 130 1.0 3.0 0.00 0.00 0.00 89 1006.3
20170227111321 47 45 0.0 2.0 0.00 0.00 0.00 89 1006.3
20170227111020 47 45 0.0 2.0 0.00 0.00 0.00 88 1006.4
20170227110720 47 45 1.0 1.0 0.00 0.00 0.00 89 1006.3
20170227110418 47 135 1.0 1.0 0.00 0.00 0.00 88 1006.3
20170227110117 47 180 0.0 1.0 0.00 0.00 0.00 88 1006.5
20170227105817 47 45 0.0 1.0 0.00 0.00 0.00 88 1006.6
20170227105516 47 225 0.0 2.0 0.00 0.00 0.00 88 1006.5
20170227105214 47 270 0.0 1.0 0.00 0.00 0.00 88 1006.6
20170227104913 47 270 0.0 0.0 0.00 0.00 0.00 88 1006.6
20170227104613 47 270 0.0 1.0 0.00 0.00 0.00 88 1006.7
20170227104310 47 270 0.0 1.0 0.00 0.00 0.00 88 1006.7
20170227104009 47 135 0.0 0.0 0.00 0.00 0.00 88 1006.9
20170227103708 47 135 0.0 0.0 0.00 0.00 0.00 87 1006.9
20170227103408 47 135 0.0 0.0 0.00 0.00 0.00 87 1006.9
20170227103106 47 225 0.0 0.0 0.00 0.00 0.00 87 1006.9
20170227102203 47 292 0.0 0.0 0.00 0.00 0.00 87 1007.1
20170227101901 47 45 0.0 1.0 0.00 0.00 0.00 88 1007.1
20170227101600 47 13 0.0 1.0 0.00 0.00 0.00 87 1007.1
20170227101259 47 67 0.0 1.0 0.00 0.00 0.00 88 1007.1
20170227101004 47 225 0.0 0.0 0.00 0.00 0.00 87 1007.1
20170227100658 47 270 0.0 0.0 0.00 0.00 0.00 88 1007.2
20170227100356 47 270 0.0 1.0 0.00 0.00 0.00 87 1007.1
20170227100055 47 270 1.0 1.0 0.00 0.00 0.00 87 1007.3
20170227095755 47 270 0.0 1.0 0.00 0.00 0.00 87 1007.2
20170227095453 47 270 1.0 1.0 0.00 0.00 0.00 87 1007.2
20170227095151 47 270 1.0 2.0 0.00 0.00 0.00 87 1007.3
20170227094851 47 270 1.0 1.0 0.00 0.00 0.00 87 1007.3
20170227094551 47 270 1.0 1.0 0.00 0.00 0.00 86 1007.4
20170227094249 47 225 0.0 1.0 0.00 0.00 0.00 86 1007.5
20170227093948 47 270 0.0 1.0 0.00 0.00 0.00 86 1007.5
20170227093646 47 225 0.0 0.0 0.00 0.00 0.00 86 1007.5
20170227093345 47 270 0.0 0.0 0.00 0.00 0.00 86 1007.6
20170227093044 47 270 0.0 0.0 0.00 0.00 0.00 86 1007.5
20170227092441 47 45 0.0 0.0 0.00 0.00 0.00 86 1007.7
20170227092140 47 45 0.0 1.0 0.00 0.00 0.00 86 1007.7
20170227091839 47 45 0.0 0.0 0.00 0.00 0.00 86 1007.8
20170227091539 47 45 0.0 0.0 0.00 0.00 0.00 86 1007.9
20170227091237 47 45 0.0 0.0 0.00 0.00 0.00 86 1007.9
20170227090936 47 45 0.0 1.0 0.00 0.00 0.00 85 1007.9
20170227090635 47 45 0.0 1.0 0.00 0.00 0.00 85 1007.9
20170227090335 47 180 0.0 1.0 0.00 0.00 0.00 85 1007.9
20170227090034 47 45 0.0 1.0 0.00 0.00 0.00 85 1007.9
20170227085735 47 45 1.0 2.0 0.00 0.00 0.00 85 1008.0
20170227085129 47 54 2.0 2.0 0.00 0.00 0.00 86 1008.0
20170227084830 47 38 2.0 3.0 0.00 0.00 0.00 85 1007.9
20170227084528 47 45 1.0 2.0 0.00 0.00 0.00 86 1008.0
20170227084229 47 90 1.0 1.0 0.00 0.00 0.00 86 1008.0
20170227083925 47 119 1.0 3.0 0.00 0.00 0.00 86 1008.0
20170227083625 47 96 2.0 3.0 0.00 0.00 0.00 86 1008.0
20170227083323 47 99 1.0 3.0 0.00 0.00 0.00 85 1008.1
20170227082720 46 33 1.0 3.0 0.00 0.00 0.00 85 1008.0
20170227082420 46 135 0.0 1.0 0.00 0.00 0.00 85 1007.9
20170227081216 47 184 2.0 4.0 0.00 0.00 0.00 85 1008.0
20170227080916 47 49 3.0 3.0 0.00 0.00 0.00 84 1008.0
20170227080613 47 38 2.0 4.0 0.00 0.00 0.00 85 1008.1
20170227080313 47 33 2.0 3.0 0.00 0.00 0.00 85 1008.0
20170227080010 47 49 3.0 3.0 0.00 0.00 0.00 85 1007.9
20170227075709 47 29 2.0 3.0 0.00 0.00 0.00 84 1007.9
20170227075408 47 45 3.0 3.0 0.00 0.00 0.00 84 1008.0
20170227075108 48 2 1.0 2.0 0.00 0.00 0.00 84 1008.0
20170227074807 48 45 0.0 1.0 0.00 0.00 0.00 85 1008.1
20170227074505 48 0 0.0 2.0 0.00 0.00 0.00 84 1008.1
20170227074204 48 45 0.0 2.0 0.00 0.00 0.00 84 1008.2
20170227073602 48 182 0.0 1.0 0.00 0.00 0.00 84 1008.1
20170227073301 48 265 1.0 1.0 0.00 0.00 0.00 84 1008.1
20170227073001 48 180 0.0 2.0 0.00 0.00 0.00 84 1008.1
20170227072658 48 225 0.0 2.0 0.00 0.00 0.00 84 1008.0
20170227072357 48 195 1.0 5.0 0.00 0.00 0.00 84 1008.0
20170227072056 48 141 3.0 3.0 0.00 0.00 0.00 84 1008.0
20170227071154 48 119 3.0 3.0 0.00 0.00 0.00 84 1007.9
20170227070852 48 135 0.0 2.0 0.00 0.00 0.00 83 1008.0
20170227070551 48 130 2.0 2.0 0.00 0.00 0.00 83 1007.9
20170227070249 48 139 1.0 3.0 0.00 0.00 0.00 84 1008.0
20170227065948 48 135 2.0 3.0 0.00 0.00 0.00 84 1008.0
20170227065647 48 128 1.0 2.0 0.00 0.00 0.00 84 1007.9
20170227065046 48 141 2.0 5.0 0.00 0.00 0.00 83 1007.9
20170227064744 48 105 4.0 4.0 0.00 0.00 0.00 84 1007.8
20170227064443 48 110 3.0 3.0 0.00 0.00 0.00 84 1007.9
20170227063841 48 148 0.0 4.0 0.00 0.00 0.00 84 1008.1
20170227063233 48 72 4.0 4.0 0.00 0.00 0.00 84 1008.0
20170227062932 48 90 4.0 5.0 0.00 0.00 0.00 84 1008.1
20170227062631 48 90 3.0 6.0 0.00 0.00 0.00 84 1008.1
20170227062330 48 87 5.0 6.0 0.00 0.00 0.00 84 1008.0
20170227062029 48 81 4.0 5.0 0.00 0.00 0.00 85 1007.9
20170227061729 48 83 3.0 6.0 0.00 0.00 0.00 85 1008.0
20170227061427 48 78 5.0 6.0 0.00 0.00 0.00 85 1008.1
20170227061126 47 90 4.0 6.0 0.00 0.00 0.00 86 1008.0
20170227060825 47 103 3.0 6.0 0.00 0.00 0.00 85 1008.1
20170227060523 47 67 4.0 4.0 0.00 0.00 0.00 85 1008.1
20170227060222 47 69 2.0 5.0 0.00 0.00 0.00 86 1008.1
20170227055923 47 60 3.0 4.0 0.00 0.00 0.00 86 1008.1
20170227055620 47 83 2.0 5.0 0.00 0.00 0.00 86 1008.2
20170227055320 47 85 4.0 5.0 0.00 0.00 0.00 86 1008.1
20170227055018 47 38 2.0 4.0 0.00 0.00 0.00 86 1008.1
20170227054717 47 90 2.0 5.0 0.00 0.00 0.00 85 1008.1
20170227054419 47 65 3.0 5.0 0.00 0.00 0.00 86 1008.1
20170227054116 47 65 4.0 5.0 0.00 0.00 0.00 86 1008.0
20170227053814 47 60 3.0 4.0 0.00 0.00 0.00 85 1008.1
20170227053513 47 56 2.0 5.0 0.00 0.00 0.08 86 1007.9
20170227053211 47 40 4.0 5.0 0.00 0.00 0.08 86 1007.9
20170227052912 47 83 3.0 4.0 0.00 0.00 0.08 85 1007.9
20170227052308 47 81 5.0 6.0 0.00 0.00 0.08 86 1007.9
20170227052008 47 74 4.0 5.0 0.00 0.00 0.08 86 1007.9
20170227051706 47 72 2.0 6.0 0.00 0.00 0.08 85 1007.9
20170227051405 47 85 4.0 5.0 0.00 0.00 0.08 86 1007.9
20170227051103 47 87 5.0 5.0 0.00 0.00 0.08 85 1008.0
20170227050501 47 81 4.0 4.0 0.00 0.00 0.08 85 1008.0
20170227050200 47 51 3.0 5.0 0.00 0.00 0.08 85 1008.0
20170227045859 47 56 3.0 7.0 0.00 0.00 0.08 85 1008.0
20170227045258 47 49 4.0 5.0 0.00 0.00 0.08 84 1008.0
20170227044957 47 56 4.0 4.0 0.00 0.00 0.08 84 1008.0
20170227044656 47 49 3.0 3.0 0.00 0.00 0.08 85 1008.1
20170227044354 47 56 4.0 5.0 0.00 0.00 0.08 84 1008.0
20170227043753 47 108 1.0 4.0 0.00 0.00 0.08 84 1007.9
20170227043149 47 90 1.0 3.0 0.00 0.00 0.08 84 1007.7
20170227042849 47 90 2.0 3.0 0.00 0.00 0.08 84 1007.8
20170227042246 47 83 3.0 6.0 0.00 0.00 0.08 85 1007.9
20170227041945 47 87 3.0 4.0 0.00 0.00 0.08 85 1007.8
20170227041644 47 51 3.0 5.0 0.00 0.00 0.08 85 1007.8
20170227041344 47 60 3.0 4.0 0.00 0.00 0.08 85 1007.6
20170227041041 47 45 4.0 4.0 0.00 0.00 0.08 85 1007.7
20170227040741 47 49 3.0 3.0 0.00 0.00 0.08 85 1007.7
20170227040439 47 65 2.0 4.0 0.00 0.00 0.08 85 1007.6
20170227035837 47 45 2.0 2.0 0.00 0.00 0.08 84 1007.6
20170227035536 47 135 0.0 1.0 0.00 0.00 0.08 84 1007.8
20170227035236 47 90 0.0 1.0 0.00 0.00 0.08 84 1007.8
20170227034934 47 90 0.0 1.0 0.00 0.00 0.08 84 1007.8
20170227034632 47 135 0.0 0.0 0.00 0.00 0.08 84 1007.9
20170227034332 47 135 0.0 0.0 0.00 0.00 0.08 84 1007.8
20170227034030 47 135 0.0 2.0 0.00 0.00 0.08 84 1007.7
20170227033729 47 180 0.0 1.0 0.00 0.00 0.08 84 1007.7
20170227033430 47 180 0.0 2.0 0.00 0.00 0.08 84 1007.6
20170227032827 47 90 1.0 3.0 0.00 0.00 0.08 84 1007.6
20170227032525 47 74 2.0 3.0 0.00 0.00 0.08 84 1007.6
20170227032224 47 187 0.0 2.0 0.00 0.00 0.08 84 1007.5
20170227031924 47 135 0.0 2.0 0.00 0.00 0.08 83 1007.4
20170227031621 46 90 2.0 2.0 0.00 0.00 0.08 83 1007.4
20170227031320 46 225 0.0 0.0 0.00 0.00 0.08 82 1007.6
20170227031019 46 180 0.0 0.0 0.00 0.00 0.08 82 1007.5
20170227030718 47 180 0.0 0.0 0.00 0.00 0.08 82 1007.5
20170227030417 47 216 0.0 1.0 0.00 0.00 0.08 82 1007.5
20170227025515 47 90 0.0 1.0 0.00 0.00 0.08 81 1007.5
20170227025213 47 135 0.0 1.0 0.00 0.00 0.08 81 1007.2
20170227024911 47 45 1.0 2.0 0.00 0.00 0.08 81 1007.2
20170227024610 47 45 1.0 2.0 0.00 0.00 0.08 80 1007.1
20170227024309 47 49 1.0 1.0 0.00 0.00 0.08 80 1007.1
20170227024009 47 180 0.0 1.0 0.00 0.00 0.08 79 1007.3
20170227023707 48 180 0.0 1.0 0.00 0.00 0.08 79 1007.5
20170227023406 48 225 0.0 2.0 0.00 0.00 0.08 79 1007.5
20170227023106 48 225 0.0 2.0 0.00 0.00 0.08 79 1007.6
20170227021900 48 193 1.0 2.0 0.00 0.00 0.08 77 1007.5
20170227021559 49 225 0.0 1.0 0.00 0.00 0.08 77 1007.4
20170227021258 49 225 0.0 0.0 0.00 0.00 0.08 76 1007.3
20170227020957 49 247 0.0 0.0 0.00 0.00 0.08 76 1007.3
20170227020656 49 180 0.0 0.0 0.00 0.00 0.08 76 1007.3
20170227020355 50 180 0.0 0.0 0.00 0.00 0.08 75 1007.3
20170227015754 50 180 0.0 1.0 0.00 0.00 0.08 74 1007.5
20170227015452 51 180 0.0 1.0 0.00 0.00 0.08 74 1007.4
20170227015152 51 157 0.0 1.0 0.00 0.00 0.08 74 1007.5
20170227014849 51 180 0.0 0.0 0.00 0.00 0.08 73 1007.3
20170227014548 52 180 0.0 0.0 0.00 0.00 0.08 73 1007.4
20170227014247 52 150 0.0 3.0 0.00 0.00 0.08 73 1007.2
20170227013645 53 146 4.0 4.0 0.00 0.00 0.08 73 1007.1
20170227013344 53 225 0.0 4.0 0.00 0.00 0.08 73 1007.2
20170227013043 53 90 3.0 4.0 0.00 0.00 0.08 73 1007.0
20170227012743 53 168 2.0 4.0 0.00 0.00 0.08 72 1007.0
20170227012139 54 182 2.0 3.0 0.00 0.00 0.08 72 1007.0
20170227011537 54 184 2.0 4.0 0.00 0.00 0.08 72 1007.1
20170227011236 54 175 3.0 5.0 0.00 0.00 0.08 72 1007.3
20170227010935 54 184 4.0 5.0 0.00 0.00 0.08 71 1007.4
20170227010032 54 195 1.0 4.0 0.00 0.00 0.08 70 1007.3
20170227005730 54 173 4.0 4.0 0.00 0.00 0.08 70 1007.1
20170227005433 55 166 1.0 5.0 0.00 0.00 0.08 70 1007.1
20170227004827 55 159 2.0 4.0 0.00 0.00 0.08 68 1007.2
20170227004527 55 141 3.0 4.0 0.00 0.00 0.08 68 1007.1
20170227004225 55 130 3.0 7.0 0.00 0.00 0.08 68 1006.9
20170227003623 56 137 4.0 8.0 0.00 0.00 0.08 67 1006.9
20170227003322 56 117 5.0 7.0 0.00 0.00 0.08 67 1006.9
20170227002720 57 130 4.0 7.0 0.00 0.00 0.08 66 1007.0
20170227002420 57 108 7.0 7.0 0.00 0.00 0.08 65 1007.2
20170227002117 57 128 4.0 6.0 0.00 0.00 0.08 66 1007.1
20170227001515 57 141 3.0 10.0 0.00 0.00 0.08 66 1007.1
20170227001214 58 90 6.0 11.0 0.00 0.00 0.08 65 1007.1
20170227000913 58 108 7.0 10.0 0.00 0.00 0.08 65 1006.9
20170227000612 58 105 6.0 12.0 0.00 0.00 0.08 65 1006.9
20170227000312 58 123 10.0 10.0 0.00 0.00 0.08 64 1006.6
20170226235708 58 119 6.0 9.0 0.00 0.00 0.08 65 1006.9
20170226235407 58 119 6.0 11.0 0.00 0.00 0.08 65 1006.9
20170226235106 58 108 8.0 12.0 0.00 0.00 0.08 64 1006.9
20170226234806 58 103 9.0 12.0 0.00 0.00 0.08 65 1006.9
20170226234504 58 87 11.0 12.0 0.00 0.00 0.08 64 1006.9
20170226234203 59 99 6.0 10.0 0.00 0.00 0.08 63 1007.1
20170226233602 59 92 6.0 9.0 0.00 0.00 0.08 63 1007.0
20170226233301 59 99 6.0 9.0 0.00 0.00 0.08 62 1007.1
20170226233000 60 110 8.0 8.0 0.00 0.00 0.08 63 1007.1
20170226232657 60 135 4.0 11.0 0.00 0.00 0.08 62 1007.1
20170226232357 60 78 7.0 11.0 0.00 0.00 0.08 62 1007.1
20170226232055 60 76 9.0 11.0 0.00 0.00 0.08 62 1007.1
20170226231754 60 130 4.0 4.0 0.00 0.00 0.08 65 1007.2
20170226231454 60 175 2.0 8.0 0.00 0.00 0.08 65 1007.1
20170226231152 60 132 3.0 8.0 0.00 0.00 0.08 65 1007.2
20170226230851 60 110 6.0 6.0 0.00 0.00 0.08 66 1007.1
20170226230550 59 108 3.0 4.0 0.00 0.00 0.08 66 1007.2
20170226230248 59 175 4.0 5.0 0.00 0.00 0.08 67 1007.1
20170226225947 58 150 3.0 5.0 0.00 0.00 0.08 68 1007.0
20170226225647 58 128 5.0 6.0 0.00 0.00 0.08 68 1007.2
20170226225345 57 130 6.0 6.0 0.00 0.00 0.08 68 1007.1
20170226225046 57 101 3.0 4.0 0.00 0.00 0.08 68 1007.2
20170226224744 56 121 3.0 6.0 0.00 0.00 0.08 68 1007.2
20170226224443 56 139 2.0 5.0 0.00 0.00 0.08 68 1007.3
20170226223835 56 140 2.0 6.0 0.00 0.00 0.08 68 1007.3
20170226223534 56 92 5.0 6.0 0.00 0.00 0.08 68 1007.4
20170226223232 56 148 1.0 4.0 0.00 0.00 0.08 68 1007.3
20170226222933 56 130 3.0 6.0 0.00 0.00 0.08 67 1007.4
20170226222630 56 135 3.0 6.0 0.00 0.00 0.08 66 1007.4
20170226222335 57 105 6.0 11.0 0.00 0.00 0.08 66 1007.3
20170226222028 57 114 8.0 10.0 0.00 0.00 0.08 65 1007.4
20170226221727 57 92 6.0 10.0 0.00 0.00 0.08 64 1007.5
20170226221125 58 94 8.0 8.0 0.00 0.00 0.08 65 1007.4
20170226220824 58 114 4.0 9.0 0.00 0.00 0.08 65 1007.5
20170226220523 58 123 5.0 9.0 0.00 0.00 0.08 65 1007.3
20170226220222 58 110 5.0 9.0 0.00 0.00 0.08 65 1007.4
20170226215619 58 141 5.0 9.0 0.00 0.00 0.08 67 1007.4
20170226214716 56 90 8.0 11.0 0.00 0.00 0.08 65 1007.6
20170226213817 56 90 9.0 10.0 0.00 0.00 0.08 65 1007.6
20170226213213 57 87 5.0 8.0 0.00 0.00 0.08 65 1007.7
20170226212910 57 137 4.0 8.0 0.00 0.00 0.08 66 1007.6
20170226212612 57 141 5.0 10.0 0.00 0.00 0.08 65 1007.8
20170226212308 57 126 6.0 8.0 0.00 0.00 0.08 65 1007.8
20170226212007 57 126 5.0 11.0 0.00 0.00 0.08 65 1007.7
20170226211705 58 114 5.0 11.0 0.00 0.00 0.08 64 1007.8
20170226211013 59 90 9.0 11.0 0.00 0.00 0.08 62 1007.8
20170226210804 59 90 9.0 11.0 0.00 0.00 0.08 62 1007.8
20170226210700 59 112 6.0 11.0 0.00 0.00 0.08 64 1007.8
20170226210502 59 112 6.0 11.0 0.00 0.00 0.08 64 1007.8
20170226205758 58 100 6.0 9.0 0.00 0.00 0.08 65 1007.8
20170226205558 58 100 6.0 9.0 0.00 0.00 0.08 65 1007.8
20170226205257 58 144 7.0 11.0 0.00 0.00 0.08 64 1008.1
20170226205137 58 130 10.0 11.0 0.00 0.00 0.08 65 1008.1
20170226204955 58 130 10.0 11.0 0.00 0.00 0.08 65 1008.1
20170226204919 58 112 9.0 15.0 0.00 0.00 0.08 64 1007.9
20170226204654 58 112 9.0 15.0 0.00 0.00 0.08 64 1007.9
20170226204247 58 126 11.0 12.0 0.00 0.00 0.08 67 1008.0
20170226204053 58 126 11.0 12.0 0.00 0.00 0.08 67 1008.0
20170226204022 58 103 9.0 15.0 0.00 0.00 0.08 67 1008.0
20170226203750 58 78 11.0 13.0 0.00 0.00 0.08 66 1007.9
20170226203449 58 78 11.0 13.0 0.00 0.00 0.08 66 1007.9
20170226203149 58 99 10.0 12.0 0.00 0.00 0.08 68 1008.3
20170226203147 57 94 7.0 13.0 0.00 0.00 0.08 67 1008.3
20170226202852 57 94 7.0 13.0 0.00 0.00 0.08 67 1008.3
20170226202511 57 90 9.0 11.0 0.00 0.00 0.08 68 1008.2
20170226202245 57 119 7.0 10.0 0.00 0.00 0.08 70 1008.4
20170226201944 57 119 7.0 10.0 0.00 0.00 0.08 70 1008.4
20170226201901 56 108 6.0 13.0 0.00 0.00 0.08 70 1008.5
20170226201643 56 108 6.0 13.0 0.00 0.00 0.08 70 1008.5
20170226200943 56 128 8.0 12.0 0.00 0.00 0.08 69 1008.7
20170226200741 56 128 8.0 12.0 0.00 0.00 0.08 69 1008.7
20170226200139 56 130 4.0 13.0 0.00 0.00 0.08 72 1008.9
20170226195745 56 117 8.0 12.0 0.00 0.00 0.08 71 1009.0
20170226195535 56 117 8.0 12.0 0.00 0.00 0.08 71 1009.0
20170226195429 56 83 7.0 11.0 0.00 0.00 0.08 71 1009.0
20170226195235 56 83 7.0 11.0 0.00 0.00 0.08 71 1009.0
20170226195158 56 112 8.0 11.0 0.00 0.00 0.08 71 1009.1
20170226194820 56 105 7.0 13.0 0.00 0.00 0.08 71 1008.9
20170226194632 56 105 7.0 13.0 0.00 0.00 0.08 71 1008.9
20170226194312 55 72 7.0 11.0 0.00 0.00 0.08 73 1009.0
20170226194029 55 72 7.0 11.0 0.00 0.00 0.08 73 1009.0
20170226193932 55 90 7.0 11.0 0.00 0.00 0.08 72 1009.0
20170226193730 55 90 7.0 11.0 0.00 0.00 0.08 72 1009.0
20170226193415 54 123 6.0 12.0 0.00 0.00 0.08 73 1009.2
20170226193126 54 123 6.0 12.0 0.00 0.00 0.08 73 1009.2
20170226193032 54 90 11.0 13.0 0.00 0.00 0.08 72 1009.2
20170226192825 54 90 11.0 13.0 0.00 0.00 0.08 72 1009.2
20170226192806 54 99 9.0 12.0 0.00 0.00 0.08 72 1009.1
20170226192423 54 101 6.0 12.0 0.00 0.00 0.08 73 1009.3
20170226192223 54 101 6.0 12.0 0.00 0.00 0.08 73 1009.3
20170226191629 53 78 10.0 15.0 0.00 0.00 0.08 74 1009.4
20170226191621 53 99 7.0 15.0 0.00 0.00 0.08 75 1009.4
20170226190956 53 72 7.0 12.0 0.00 0.00 0.08 76 1009.6
20170226190717 53 72 7.0 12.0 0.00 0.00 0.08 76 1009.6
20170226190325 53 92 10.0 14.0 0.00 0.00 0.08 76 1009.5
20170226190116 53 108 7.0 9.0 0.00 0.00 0.08 79 1009.6
20170226185814 53 108 7.0 9.0 0.00 0.00 0.08 79 1009.6
20170226185812 52 95 8.0 13.0 0.00 0.00 0.08 79 1009.5
20170226185540 52 83 11.0 13.0 0.00 0.00 0.08 79 1009.2
20170226185513 52 95 8.0 13.0 0.00 0.00 0.08 79 1009.5
20170226185212 52 83 11.0 13.0 0.00 0.00 0.08 79 1009.2
20170226185155 52 78 12.0 12.0 0.00 0.00 0.08 78 1009.3
20170226184908 52 87 9.0 12.0 0.00 0.00 0.08 78 1009.5
20170226184609 52 87 9.0 12.0 0.00 0.00 0.08 78 1009.5
20170226184314 52 77 4.0 9.0 0.00 0.00 0.08 78 1010.1
20170226184309 52 90 8.0 9.0 0.00 0.00 0.08 78 1009.7
20170226184011 52 77 4.0 9.0 0.00 0.00 0.08 78 1010.1
20170226184007 52 85 5.0 8.0 0.00 0.00 0.08 80 1010.0
20170226183708 52 85 5.0 8.0 0.00 0.00 0.08 80 1010.0
20170226183506 51 99 7.0 7.0 0.00 0.00 0.08 79 1009.9
20170226183431 51 99 7.0 7.0 0.00 0.00 0.08 79 1009.9
20170226183105 51 99 7.0 7.0 0.00 0.00 0.08 79 1009.9
20170226183022 51 67 3.0 8.0 0.00 0.00 0.08 79 1009.9
20170226182803 51 67 3.0 8.0 0.00 0.00 0.08 79 1009.9
20170226182737 51 96 4.0 8.0 0.00 0.00 0.08 79 1010.1
20170226182502 51 96 4.0 8.0 0.00 0.00 0.08 79 1010.1
20170226182442 51 85 5.0 7.0 0.00 0.00 0.08 79 1010.1
20170226182220 52 85 7.0 7.0 0.00 0.00 0.08 79 1010.1
20170226182201 51 85 5.0 7.0 0.00 0.00 0.08 79 1010.1
20170226181900 52 85 7.0 7.0 0.00 0.00 0.08 79 1010.1
20170226181859 51 81 3.0 7.0 0.00 0.00 0.08 79 1010.2
20170226181610 52 90 3.0 7.0 0.00 0.00 0.08 79 1010.3
20170226181602 51 81 3.0 7.0 0.00 0.00 0.08 79 1010.2
20170226181258 52 90 3.0 7.0 0.00 0.00 0.08 79 1010.3
20170226181244 52 83 4.0 7.0 0.00 0.00 0.08 79 1010.2
20170226180956 52 83 4.0 7.0 0.00 0.00 0.08 79 1010.2
20170226180913 52 81 4.0 7.0 0.00 0.00 0.08 79 1010.4
20170226180655 52 81 4.0 7.0 0.00 0.00 0.08 79 1010.4
20170226180610 52 92 2.0 6.0 0.00 0.00 0.08 81 1010.3
20170226180356 52 92 2.0 6.0 0.00 0.00 0.08 81 1010.3
20170226180337 52 101 3.0 4.0 0.00 0.00 0.08 82 1010.3
20170226180053 52 101 3.0 4.0 0.00 0.00 0.08 82 1010.3
20170226175809 51 146 1.0 2.0 0.00 0.00 0.08 83 1010.4
20170226175753 52 78 1.0 4.0 0.00 0.00 0.08 82 1010.2
20170226175452 51 146 1.0 2.0 0.00 0.00 0.08 83 1010.4
20170226175441 51 128 3.0 5.0 0.00 0.00 0.08 83 1010.3
20170226175150 51 128 3.0 5.0 0.00 0.00 0.08 83 1010.3
20170226175134 51 101 3.0 4.0 0.00 0.00 0.08 83 1010.3
20170226174848 51 101 3.0 4.0 0.00 0.00 0.08 83 1010.3
20170226174801 51 92 1.0 5.0 0.00 0.00 0.08 83 1010.2
20170226174547 51 92 1.0 5.0 0.00 0.00 0.08 83 1010.2
20170226174247 51 90 5.0 5.0 0.00 0.00 0.08 84 1010.3
20170226174210 51 94 4.0 4.0 0.00 0.00 0.08 85 1010.2
20170226173948 50 123 2.0 4.0 0.00 0.00 0.08 85 1010.2
20170226173945 51 94 4.0 4.0 0.00 0.00 0.08 85 1010.2
20170226173645 50 123 2.0 4.0 0.00 0.00 0.08 85 1010.2
20170226173640 50 137 1.0 6.0 0.00 0.00 0.08 85 1010.2
20170226173343 50 137 1.0 6.0 0.00 0.00 0.08 85 1010.2
20170226173323 50 135 1.0 3.0 0.00 0.00 0.08 87 1010.0
20170226173043 50 135 1.0 3.0 0.00 0.00 0.08 87 1010.0
20170226172950 49 117 2.0 5.0 0.00 0.00 0.08 87 1010.0
20170226172741 49 117 2.0 5.0 0.00 0.00 0.08 87 1010.0
20170226172452 49 101 3.0 5.0 0.00 0.00 0.08 87 1010.0
20170226172139 49 101 3.0 5.0 0.00 0.00 0.08 87 1010.0
20170226171819 48 92 4.0 6.0 0.00 0.00 0.08 87 1009.8
20170226171536 48 92 4.0 6.0 0.00 0.00 0.08 87 1009.8
20170226171235 48 110 4.0 6.0 0.00 0.00 0.08 87 1010.0
20170226171220 48 83 6.0 10.0 0.00 0.00 0.08 86 1010.1
20170226170934 48 83 6.0 10.0 0.00 0.00 0.08 86 1010.1
20170226170930 48 90 6.0 10.0 0.00 0.00 0.08 87 1009.7
20170226170644 48 103 6.0 11.0 0.00 0.00 0.08 88 1009.9
20170226170633 48 90 6.0 10.0 0.00 0.00 0.08 87 1009.7
20170226170332 48 103 6.0 11.0 0.00 0.00 0.08 88 1009.9
20170226170320 48 99 7.0 11.0 0.00 0.00 0.08 89 1009.8
20170226170031 48 99 7.0 11.0 0.00 0.00 0.08 89 1009.8
20170226170025 48 90 7.0 7.0 0.00 0.00 0.08 90 1009.8
20170226165745 47 90 7.0 8.0 0.00 0.00 0.08 91 1009.7
20170226165730 48 90 7.0 7.0 0.00 0.00 0.08 90 1009.8
20170226165429 47 90 7.0 8.0 0.00 0.00 0.08 91 1009.7
20170226165128 47 78 4.0 8.0 0.00 0.00 0.08 91 1009.7
20170226165056 47 92 3.0 6.0 0.00 0.00 0.08 91 1009.8
20170226164801 47 78 5.0 5.0 0.00 0.00 0.08 92 1009.6
20170226164525 47 78 5.0 5.0 0.00 0.00 0.08 92 1009.6
20170226164226 46 83 4.0 5.0 0.00 0.00 0.08 92 1009.4
20170226164126 46 76 3.0 6.0 0.00 0.00 0.08 92 1009.5
20170226163923 46 76 3.0 6.0 0.00 0.00 0.08 92 1009.5
20170226163623 46 94 5.0 5.0 0.00 0.00 0.08 92 1009.5
20170226163612 46 81 3.0 5.0 0.00 0.00 0.08 92 1009.4
20170226163321 46 81 3.0 5.0 0.00 0.00 0.08 92 1009.4
20170226163020 45 121 1.0 6.0 0.00 0.00 0.08 92 1009.2
20170226162917 45 81 6.0 6.0 0.00 0.00 0.08 93 1009.2
20170226162719 45 81 6.0 6.0 0.00 0.00 0.08 93 1009.2
20170226162645 45 87 4.0 8.0 0.00 0.00 0.08 93 1009.3
20170226162419 45 87 4.0 8.0 0.00 0.00 0.08 93 1009.3
20170226162411 45 81 3.0 7.0 0.00 0.00 0.08 93 1009.3
20170226162119 45 81 3.0 7.0 0.00 0.00 0.08 93 1009.3
20170226162032 44 85 5.0 7.0 0.00 0.00 0.08 93 1009.3
20170226161831 44 63 5.0 7.0 0.00 0.00 0.08 93 1009.2
20170226161815 44 85 5.0 7.0 0.00 0.00 0.08 93 1009.3
20170226161516 44 81 4.0 5.0 0.00 0.00 0.08 94 1009.3
20170226161514 44 63 5.0 7.0 0.00 0.00 0.08 93 1009.2
20170226161215 44 81 4.0 5.0 0.00 0.00 0.08 94 1009.3
20170226161213 44 85 4.0 6.0 0.00 0.00 0.08 94 1009.2
20170226160913 44 85 4.0 6.0 0.00 0.00 0.08 94 1009.2
20170226160350 43 112 3.0 4.0 0.00 0.00 0.08 94 1009.2
20170226160311 43 87 6.0 7.0 0.00 0.00 0.08 94 1009.2
20170226160009 43 112 3.0 4.0 0.00 0.00 0.08 94 1009.2
20170226155937 43 85 3.0 9.0 0.00 0.00 0.08 94 1009.1
20170226155708 43 85 3.0 9.0 0.00 0.00 0.08 94 1009.1
20170226155614 43 78 7.0 9.0 0.00 0.00 0.08 94 1009.0
20170226155409 43 78 7.0 9.0 0.00 0.00 0.08 94 1009.0
20170226155347 43 90 5.0 7.0 0.00 0.00 0.08 94 1009.0
20170226155105 43 90 5.0 7.0 0.00 0.00 0.08 94 1009.0
20170226154808 43 85 4.0 7.0 0.00 0.00 0.08 94 1008.9
20170226154503 43 85 4.0 7.0 0.00 0.00 0.08 94 1008.9